Lebanon, NH

6:26 PM EDT on April 21, 2018 (GMT -0400)
Lebanon Municipal

Weather History for KLEB - January, 2014

Change the Weather History Date:

Saturday, January 18, 2014

  Actual Average Record
Temperature  
Mean Temperature 28 °F -  
Max Temperature 35 °F 27 °F 56 °F (1990)
Min Temperature 21 °F 5 °F -25 °F (1954)
Degree Days  
Heating Degree Days 37    
Moisture  
Dew Point 25 °F    
Average Humidity 86    
Maximum Humidity 92    
Minimum Humidity 65    
Precipitation  
Precipitation 0.07 in - - ()
Sea Level Pressure  
Sea Level Pressure 29.76 in    
Wind  
Wind Speed 1 mph (North)    
Max Wind Speed 6 mph    
Max Gust Speed -    
Visibility 3 miles    
Events Fog , Snow    
Averages and records for this station are not official NWS values.
T = Trace of Precipitation, MM = Missing Value Source: NWS Daily Summary

Daily Weather History Graph

Daily Weather History Graph

Search for Another Location

Airport or City:

Astronomy

Jan. 18, 2014 Rise Set
Actual Time 7:17 AM EST 4:41 PM EST
Civil Twilight 6:46 AM EST 5:13 PM EST
Nautical Twilight 6:11 AM EST 5:48 PM EST
Astronomical Twilight 5:36 AM EST 6:22 PM EST
Moon 7:27 PM EST (1/18) 8:10 AM EST (1/18)
Length of Visible Light 10h 27m
Length of Day
9h 24m
Waning Gibbous, 94% of the Moon is Illuminated
Jan 18
Waning Gibbous
Jan 24
Last Quarter
Jan 30
New
Feb 6
First Quarter
Feb 14
Full

Hourly Weather History & Observations

Time (EST) Temp. Windchill Dew Point Humidity Pressure Visibility Wind Dir Wind Speed Gust Speed Precip Events Conditions
12:01 AM 24.1 °F - 21.0 °F 88% 29.90 in 2.5 mi Calm Calm - N/A   Overcast
12:10 AM 25.0 °F - 21.9 °F 88% 29.89 in 0.8 mi Calm Calm - N/A   Mist
12:26 AM 23.0 °F - 19.9 °F 88% 29.88 in 2.0 mi Calm Calm - N/A   Overcast
12:34 AM 21.9 °F - 19.0 °F 89% 29.88 in 8.0 mi Calm Calm - N/A   Overcast
12:53 AM 24.1 °F - 21.0 °F 88% 29.91 in 5.0 mi Calm Calm - N/A   Overcast
1:14 AM 25.0 °F - 21.9 °F 88% 29.88 in 1.8 mi Calm Calm - N/A   Overcast
1:22 AM 26.1 °F - 23.0 °F 88% 29.88 in 0.2 mi Calm Calm - N/A Fog Light Freezing Fog
1:53 AM 26.1 °F - 23.0 °F 88% 29.91 in 0.2 mi Calm Calm - N/A Fog Light Freezing Fog
2:53 AM 25.0 °F - 23.0 °F 92% 29.90 in 0.2 mi Calm Calm - N/A Fog Light Freezing Fog
3:53 AM 24.1 °F - 21.9 °F 91% 29.90 in 0.2 mi Calm Calm - N/A Fog Light Freezing Fog
4:27 AM 24.1 °F - 21.0 °F 88% 29.86 in 0.5 mi Calm Calm - N/A Fog Light Freezing Fog
4:43 AM 25.0 °F - 23.0 °F 92% 29.86 in 0.2 mi Calm Calm - N/A Fog Light Freezing Fog
4:53 AM 25.0 °F - 21.9 °F 88% 29.88 in 0.2 mi Calm Calm - N/A Fog Light Freezing Fog
5:18 AM 25.0 °F 20.7 °F 21.9 °F 88% 29.83 in 0.5 mi NNE 3.5 mph - N/A Fog Light Freezing Fog
5:29 AM 25.0 °F 20.7 °F 21.9 °F 88% 29.84 in 1.8 mi North 3.5 mph - N/A   Overcast
5:33 AM 25.0 °F 20.7 °F 21.9 °F 88% 29.84 in 3.0 mi North 3.5 mph - N/A   Overcast
5:53 AM 24.1 °F - 21.0 °F 88% 29.88 in 7.0 mi Calm Calm - N/A   Overcast
6:13 AM 24.1 °F - 21.0 °F 88% 29.84 in 7.0 mi Calm Calm - N/A   Overcast
6:53 AM 24.1 °F 19.7 °F 19.9 °F 84% 29.86 in 7.0 mi North 3.5 mph - N/A   Overcast
7:21 AM 24.1 °F - 21.0 °F 88% 29.81 in 7.0 mi Calm Calm - N/A   Scattered Clouds
7:48 AM 23.0 °F 18.4 °F 19.4 °F 86% 29.81 in 6.0 mi North 3.5 mph - N/A   Mostly Cloudy
7:53 AM 23.0 °F 18.4 °F 19.9 °F 88% 29.86 in 6.0 mi North 3.5 mph - N/A   Mostly Cloudy
8:34 AM 24.1 °F 18.2 °F 21.0 °F 88% 29.79 in 4.0 mi NNW 4.6 mph - N/A   Mostly Cloudy
8:53 AM 24.1 °F 18.2 °F 21.0 °F 88% 29.82 in 4.0 mi NNW 4.6 mph - N/A   Mostly Cloudy
9:43 AM 26.1 °F 21.9 °F 21.9 °F 84% 29.79 in 5.0 mi North 3.5 mph - N/A   Mostly Cloudy
9:53 AM 25.0 °F - 21.9 °F 88% 29.85 in 6.0 mi Calm Calm - N/A   Scattered Clouds
10:53 AM 27.0 °F 23.0 °F 23.0 °F 85% 29.82 in 7.0 mi North 3.5 mph - N/A   Mostly Cloudy
11:53 AM 30.0 °F 25.2 °F 25.0 °F 82% 29.75 in 8.0 mi NNW 4.6 mph - N/A   Clear
12:53 PM 33.1 °F 28.7 °F 26.1 °F 75% 29.70 in 10.0 mi NNW 4.6 mph - N/A   Partly Cloudy
1:37 PM 35.1 °F 30.1 °F 25.0 °F 67% 29.65 in 10.0 mi North 5.8 mph - N/A   Mostly Cloudy
1:48 PM 35.6 °F 30.7 °F 24.8 °F 65% 29.65 in 10.0 mi North 5.8 mph - N/A   Overcast
1:53 PM 35.1 °F 31.0 °F 25.0 °F 67% 29.67 in 10.0 mi North 4.6 mph - N/A   Overcast
2:09 PM 35.1 °F 32.2 °F 25.0 °F 67% 29.64 in 10.0 mi NE 3.5 mph - N/A   Overcast
2:48 PM 33.8 °F - 26.6 °F 75% 29.65 in 1.8 mi Calm Calm - 0.00 in Snow Light Snow
2:53 PM 34.0 °F - 27.0 °F 75% 29.68 in 1.5 mi Calm Calm - 0.00 in Snow Light Snow
3:53 PM 33.1 °F - 28.9 °F 85% 29.69 in 1.0 mi Calm Calm - 0.01 in Snow Light Snow
4:10 PM 33.1 °F - 30.0 °F 89% 29.66 in 0.8 mi Calm Calm - 0.00 in Snow Light Snow
4:26 PM 32.0 °F - 28.9 °F 88% 29.66 in 1.0 mi Calm Calm - 0.01 in Snow Light Snow
4:50 PM 32.0 °F - 28.4 °F 87% 29.66 in 1.8 mi Calm Calm - 0.01 in Snow Light Snow
4:53 PM 32.0 °F - 28.9 °F 88% 29.69 in 1.8 mi Calm Calm - 0.01 in Snow Light Snow
5:10 PM 32.0 °F - 28.9 °F 88% 29.66 in 1.5 mi Calm Calm - 0.01 in Snow Light Snow
5:30 PM 32.0 °F - 28.9 °F 88% 29.67 in 1.5 mi Calm Calm - 0.01 in Snow Light Snow
5:38 PM 32.0 °F - 28.9 °F 88% 29.67 in 1.5 mi Calm Calm - 0.01 in Snow Light Snow
5:53 PM 32.0 °F - 28.9 °F 88% 29.70 in 1.8 mi Calm Calm - 0.02 in Snow Light Snow
6:17 PM 32.0 °F - 28.9 °F 88% 29.67 in 1.8 mi Calm Calm - 0.00 in Snow Light Snow
6:53 PM 32.0 °F - 30.0 °F 92% 29.70 in 1.8 mi Calm Calm - 0.01 in Snow Light Snow
7:46 PM 32.0 °F - 30.0 °F 92% 29.67 in 1.2 mi Calm Calm - 0.01 in Snow Light Snow
7:53 PM 32.0 °F - 28.9 °F 88% 29.70 in 1.2 mi Calm Calm - 0.01 in Snow Light Snow
8:53 PM 30.9 °F - 28.9 °F 92% 29.70 in 1.2 mi Calm Calm - 0.01 in Snow Light Snow
9:00 PM 30.9 °F - 28.9 °F 92% 29.67 in 2.5 mi Calm Calm - 0.00 in Snow Light Snow
9:21 PM 30.9 °F 26.2 °F 28.9 °F 92% 29.68 in 1.8 mi South 4.6 mph - 0.00 in Snow Light Snow
9:29 PM 30.9 °F - 28.9 °F 92% 29.67 in 2.0 mi Calm Calm - 0.00 in Snow Light Snow
9:53 PM 30.0 °F - 27.0 °F 88% 29.70 in 2.5 mi Calm Calm - 0.00 in   Overcast
10:08 PM 30.0 °F 26.5 °F 27.0 °F 88% 29.67 in 3.0 mi SSE 3.5 mph - N/A   Overcast
10:53 PM 30.0 °F 24.1 °F 27.0 °F 88% 29.70 in 5.0 mi SSE 5.8 mph - N/A   Overcast
11:45 PM 30.0 °F - 28.0 °F 92% 29.66 in 1.8 mi Calm Calm - N/A   Overcast
11:53 PM 30.0 °F - 27.0 °F 88% 29.69 in 1.5 mi Calm Calm - N/A   Overcast